Previsão horária em Julianowo

Hoje, 22 Junho, Terça-feira

Tempo Temperatura Precipitação Vento Pressão Humidade
00:00 +21°C° 0 mm 3 m/s 747 mmHg 82%
01:00 +20°C° 0 mm 3 m/s 747 mmHg 84%
02:00 +20°C° 0 mm 3 m/s 747 mmHg 86%
03:00 +20°C° 0 mm 2 m/s 747 mmHg 87%
04:00 +19°C° 0 mm 2 m/s 747 mmHg 89%
05:00 +21°C° 0.1 mm 2 m/s 748 mmHg 85%
06:00 +23°C° 0.1 mm 2 m/s 748 mmHg 81%
07:00 +25°C° 0.1 mm 2 m/s 748 mmHg 78%
08:00 +26°C° 0.1 mm 2 m/s 748 mmHg 74%
09:00 +27°C° 0.1 mm 2 m/s 748 mmHg 70%
10:00 +28°C° 0.1 mm 2 m/s 749 mmHg 66%
11:00 +28°C° 1.1 mm 2 m/s 749 mmHg 66%
12:00 +28°C° 1.1 mm 2 m/s 749 mmHg 67%
13:00 +29°C° 1.1 mm 3 m/s 749 mmHg 67%
14:00 +27°C° 1.8 mm 3 m/s 750 mmHg 74%
15:00 +25°C° 1.8 mm 4 m/s 750 mmHg 81%
16:00 +22°C° 1.8 mm 5 m/s 750 mmHg 88%
17:00 +21°C° 0.8 mm 5 m/s 751 mmHg 90%
18:00 +20°C° 0.8 mm 4 m/s 751 mmHg 91%
19:00 +19°C° 0.8 mm 4 m/s 751 mmHg 93%
20:00 +18°C° 0.3 mm 3 m/s 752 mmHg 93%
21:00 +17°C° 0.3 mm 3 m/s 752 mmHg 93%
22:00 +16°C° 0.3 mm 2 m/s 753 mmHg 93%
23:00 +16°C° 0.1 mm 2 m/s 753 mmHg 93%

Amanhã, 23 Junho, Quarta-feira

Tempo Temperatura Precipitação Vento Pressão Humidade
00:00 +15°C° 0.1 mm 2 m/s 753 mmHg 92%
01:00 +15°C° 0.1 mm 2 m/s 753 mmHg 91%
02:00 +14°C° 0 mm 2 m/s 753 mmHg 90%
03:00 +14°C° 0 mm 2 m/s 753 mmHg 90%
04:00 +14°C° 0 mm 2 m/s 753 mmHg 89%
05:00 +15°C° 0 mm 2 m/s 754 mmHg 84%
06:00 +16°C° 0 mm 2 m/s 754 mmHg 79%
07:00 +17°C° 0 mm 2 m/s 754 mmHg 74%
08:00 +19°C° 0 mm 2 m/s 754 mmHg 69%
09:00 +20°C° 0 mm 2 m/s 754 mmHg 63%
10:00 +23°C° 0 mm 2 m/s 755 mmHg 58%
11:00 +24°C° 0 mm 2 m/s 755 mmHg 56%
12:00 +25°C° 0 mm 2 m/s 755 mmHg 55%
13:00 +26°C° 0 mm 2 m/s 755 mmHg 53%
14:00 +25°C° 0.1 mm 2 m/s 755 mmHg 57%
15:00 +25°C° 0.1 mm 2 m/s 755 mmHg 61%
16:00 +24°C° 0.1 mm 3 m/s 755 mmHg 65%
17:00 +22°C° 0 mm 3 m/s 755 mmHg 70%
18:00 +21°C° 0 mm 2 m/s 755 mmHg 74%
19:00 +20°C° 0 mm 2 m/s 755 mmHg 79%
20:00 +18°C° 0 mm 2 m/s 755 mmHg 81%
21:00 +17°C° 0 mm 2 m/s 755 mmHg 83%
22:00 +16°C° 0 mm 2 m/s 755 mmHg 86%
23:00 +16°C° 0.4 mm 2 m/s 755 mmHg 87%

Depois de amanhã, 24 Junho, Quinta-feira

Tempo Temperatura Precipitação Vento Pressão Humidade
00:00 +15°C° 0.4 mm 2 m/s 755 mmHg 89%
01:00 +15°C° 0.4 mm 1 m/s 755 mmHg 91%
02:00 +15°C° 0.2 mm 1 m/s 755 mmHg 90%
03:00 +15°C° 0.2 mm 2 m/s 755 mmHg 89%
04:00 +15°C° 0.2 mm 2 m/s 755 mmHg 89%
05:00 +16°C° 0 mm 1 m/s 755 mmHg 86%
06:00 +18°C° 0 mm 1 m/s 755 mmHg 84%
07:00 +18°C° 0 mm 1 m/s 755 mmHg 82%
08:00 +19°C° 0 mm 1 m/s 755 mmHg 79%
09:00 +19°C° 0 mm 2 m/s 755 mmHg 75%
10:00 +20°C° 0 mm 2 m/s 755 mmHg 72%
11:00 +21°C° 0 mm 2 m/s 755 mmHg 68%
12:00 +23°C° 0 mm 2 m/s 755 mmHg 65%
13:00 +24°C° 0 mm 2 m/s 755 mmHg 62%
14:00 +24°C° 0 mm 2 m/s 755 mmHg 62%
15:00 +25°C° 0 mm 2 m/s 754 mmHg 61%
16:00 +25°C° 0 mm 2 m/s 754 mmHg 60%
17:00 +24°C° 0 mm 2 m/s 754 mmHg 66%
18:00 +22°C° 0 mm 3 m/s 754 mmHg 72%
19:00 +21°C° 0 mm 3 m/s 753 mmHg 78%
20:00 +19°C° 0 mm 3 m/s 753 mmHg 79%
21:00 +18°C° 0 mm 3 m/s 753 mmHg 81%
22:00 +16°C° 0 mm 2 m/s 753 mmHg 82%
23:00 +16°C° 0 mm 3 m/s 753 mmHg 85%

25 Junho, Sexta-feira

Tempo Temperatura Precipitação Vento Pressão Humidade
00:00 +14°C° 0 mm 3 m/s 752 mmHg 87%
01:00 +14°C° 0 mm 3 m/s 752 mmHg 90%
02:00 +14°C° 0.1 mm 3 m/s 752 mmHg 90%
03:00 +14°C° 0.1 mm 3 m/s 752 mmHg 89%
04:00 +14°C° 0.1 mm 3 m/s 751 mmHg 89%
05:00 +16°C° 0.9 mm 3 m/s 751 mmHg 90%
06:00 +17°C° 0.9 mm 3 m/s 751 mmHg 91%
07:00 +17°C° 0.9 mm 3 m/s 751 mmHg 93%
08:00 +18°C° 0.2 mm 3 m/s 750 mmHg 91%
09:00 +19°C° 0.2 mm 3 m/s 750 mmHg 89%
10:00 +20°C° 0.2 mm 3 m/s 750 mmHg 88%
11:00 +20°C° 0.2 mm 4 m/s 750 mmHg 89%
12:00 +19°C° 0.2 mm 4 m/s 750 mmHg 90%
13:00 +19°C° 0.2 mm 4 m/s 750 mmHg 92%
14:00 +18°C° 0.1 mm 4 m/s 750 mmHg 92%
15:00 +17°C° 0.1 mm 5 m/s 751 mmHg 92%
16:00 +16°C° 0.1 mm 5 m/s 751 mmHg 93%
17:00 +16°C° 0.1 mm 5 m/s 751 mmHg 93%
18:00 +15°C° 0.1 mm 4 m/s 751 mmHg 93%
19:00 +15°C° 0.1 mm 4 m/s 751 mmHg 93%
20:00 +15°C° 0 mm 4 m/s 751 mmHg 92%
21:00 +15°C° 0 mm 4 m/s 751 mmHg 92%
22:00 +15°C° 0 mm 4 m/s 751 mmHg 91%
23:00 +15°C° 0 mm 4 m/s 751 mmHg 92%

26 Junho, Sábado

Tempo Temperatura Precipitação Vento Pressão Humidade
00:00 +15°C° 0 mm 4 m/s 751 mmHg 92%
01:00 +15°C° 0 mm 4 m/s 752 mmHg 93%
02:00 +15°C° 0 mm 5 m/s 751 mmHg 93%
03:00 +15°C° 0 mm 5 m/s 751 mmHg 93%
04:00 +14°C° 0 mm 5 m/s 751 mmHg 93%
05:00 +15°C° 0 mm 5 m/s 751 mmHg 92%
06:00 +15°C° 0 mm 5 m/s 751 mmHg 91%
07:00 +15°C° 0 mm 6 m/s 752 mmHg 90%
08:00 +16°C° 0 mm 6 m/s 752 mmHg 87%
09:00 +16°C° 0 mm 6 m/s 752 mmHg 85%
10:00 +17°C° 0 mm 6 m/s 752 mmHg 83%
11:00 +19°C° 0.1 mm 6 m/s 752 mmHg 80%
12:00 +19°C° 0.1 mm 6 m/s 752 mmHg 76%
13:00 +20°C° 0.1 mm 6 m/s 752 mmHg 73%
14:00 +20°C° 0 mm 6 m/s 753 mmHg 73%
15:00 +20°C° 0 mm 5 m/s 753 mmHg 73%
16:00 +20°C° 0 mm 5 m/s 753 mmHg 73%
17:00 +19°C° 0 mm 4 m/s 753 mmHg 76%
18:00 +19°C° 0 mm 3 m/s 753 mmHg 79%
19:00 +18°C° 0 mm 3 m/s 752 mmHg 81%
20:00 +18°C° 0 mm 3 m/s 753 mmHg 82%
21:00 +17°C° 0 mm 2 m/s 753 mmHg 84%
22:00 +16°C° 0 mm 2 m/s 753 mmHg 85%
23:00 +16°C° 0 mm 2 m/s 753 mmHg 88%

27 Junho, Domingo

Tempo Temperatura Precipitação Vento Pressão Humidade
00:00 +15°C° 0 mm 2 m/s 753 mmHg 91%
01:00 +14°C° 0 mm 2 m/s 753 mmHg 95%
02:00 +14°C° 0 mm 2 m/s 753 mmHg 95%
03:00 +14°C° 0 mm 2 m/s 753 mmHg 95%
04:00 +13°C° 0 mm 2 m/s 753 mmHg 95%
05:00 +14°C° 0 mm 3 m/s 753 mmHg 89%
06:00 +17°C° 0 mm 3 m/s 754 mmHg 83%
07:00 +18°C° 0 mm 3 m/s 754 mmHg 77%
08:00 +20°C° 0 mm 3 m/s 754 mmHg 72%
09:00 +21°C° 0 mm 4 m/s 754 mmHg 68%
10:00 +22°C° 0 mm 4 m/s 754 mmHg 63%
11:00 +23°C° 0 mm 4 m/s 754 mmHg 61%
12:00 +24°C° 0 mm 3 m/s 754 mmHg 59%
13:00 +25°C° 0 mm 3 m/s 754 mmHg 57%
14:00 +24°C° 0 mm 3 m/s 754 mmHg 59%
15:00 +24°C° 0 mm 2 m/s 754 mmHg 61%
16:00 +24°C° 0 mm 2 m/s 754 mmHg 62%
17:00 +23°C° 0 mm 2 m/s 754 mmHg 66%
18:00 +23°C° 0 mm 2 m/s 754 mmHg 70%
19:00 +21°C° 0 mm 2 m/s 754 mmHg 74%
20:00 +20°C° 0 mm 2 m/s 754 mmHg 77%
21:00 +20°C° 0 mm 1 m/s 754 mmHg 80%
22:00 +19°C° 0 mm 1 m/s 754 mmHg 83%
23:00 +18°C° 0 mm 1 m/s 754 mmHg 86%
Mostrar mais

Necessitamos do seu Consentimento

A Meteoprog e os seus Fornecedores de Serviços podem armazenar e aceder a dados pessoais como cookies, identificadores do dispositivo ou outras tecnologias semelhantes existentes no seu dispositivo e processar estes dados para personalizar conteúdos e anúncios, assim como funcionalidades nas redes sociais e análise de tráfego.

  • Armazenar e/ou aceder a informações no seu dispositivo

    Os cookies, identificadores do dispositivo ou outras informações podem ser armazenados ou acedidos no seu dispositivo, para os fins acima indicados.

  • Anúncios e conteúdos personalizados, medição de anúncios e conteúdos, dados sobre o público-alvo e desenvolvimento de produtos

    Os anúncios e os conteúdos podem ser personalizados com base num perfil. Podem ser adicionados dados adicionais para uma maior personalização dos anúncios e dos conteúdos. A eficácia dos anúncios e dos conteúdos pode ser medida. Podem ser obtidas informações sobre o público que visualizou os anúncios e os conteúdos. Estes dados podem ser usados para desenvolver ou melhorar sistemas, softwares ou a experiência do utilizador.

Ao clicar em "Eu concordo”, permitirá o uso de cookies, identificadores do dispositivo e web beacons mencionados ou outras tecnologias semelhantes. As configurações do navegador do seu dispositivo podem ser alteradas.

Para certos fins, podem ser invocados interesses legítimos ao invés de consentimento. Pode ler mais informação sobre este assunto na nossa Política de Privacidade e Cookies.